TimeHST,TemperatureF,Dew PointF,Humidity,Sea Level PressureIn,VisibilityMPH,Wind Direction,Wind SpeedMPH,Gust SpeedMPH,PrecipitationIn,Events,Conditions,WindDirDegrees,DateUTC
12:53 AM,68.0,61.0,78,30.12,10.0,Variable,4.6,-,N/A,,Clear,0,2013-02-01 10:53:00
1:53 AM,68.0,60.1,76,30.11,10.0,Variable,3.5,-,N/A,,Partly Cloudy,0,2013-02-01 11:53:00
2:53 AM,68.0,59.0,73,30.09,10.0,Variable,4.6,-,N/A,,Unknown,0,2013-02-01 12:53:00
3:53 AM,66.9,59.0,76,30.09,10.0,East,4.6,-,N/A,,Unknown,80,2013-02-01 13:53:00
4:53 AM,63.0,57.9,84,30.09,10.0,Calm,Calm,-,N/A,,Clear,0,2013-02-01 14:53:00
5:53 AM,64.9,57.0,75,30.10,10.0,Calm,Calm,-,N/A,,Clear,0,2013-02-01 15:53:00
6:53 AM,62.1,57.0,84,30.12,10.0,Calm,Calm,-,N/A,,Clear,0,2013-02-01 16:53:00
7:53 AM,66.0,57.0,73,30.13,10.0,Calm,Calm,-,N/A,,Clear,0,2013-02-01 17:53:00
8:53 AM,73.9,57.9,57,30.14,10.0,ENE,8.1,-,N/A,,Clear,70,2013-02-01 18:53:00
9:10 AM,73.4,57.2,57,30.12,10.0,ENE,9.2,16.1,N/A,,Partly Cloudy,70,2013-02-01 19:10:00
9:53 AM,75.9,55.9,50,30.15,10.0,ENE,11.5,25.3,N/A,,Clear,70,2013-02-01 19:53:00
10:53 AM,78.1,57.9,50,30.14,10.0,ENE,10.4,20.7,N/A,,Clear,60,2013-02-01 20:53:00
11:53 AM,79.0,57.0,47,30.14,10.0,ENE,12.7,20.7,N/A,,Clear,70,2013-02-01 21:53:00
12:53 PM,80.1,57.0,45,30.11,10.0,ENE,10.4,21.9,N/A,,Clear,60,2013-02-01 22:53:00
1:53 PM,81.0,57.9,45,30.09,10.0,Variable,4.6,17.3,N/A,,Clear,0,2013-02-01 23:53:00
2:53 PM,79.0,55.9,45,30.08,10.0,ENE,13.8,21.9,N/A,,Clear,70,2013-02-02 00:53:00
3:18 PM,78.8,53.6,42,30.06,10.0,ENE,13.8,21.9,N/A,,Partly Cloudy,60,2013-02-02 01:18:00
3:53 PM,80.1,54.0,40,30.08,10.0,Variable,6.9,17.3,N/A,,Clear,0,2013-02-02 01:53:00
4:53 PM,79.0,52.0,39,30.08,10.0,Variable,5.8,-,N/A,,Clear,0,2013-02-02 02:53:00
5:53 PM,75.9,52.0,43,30.09,10.0,ENE,11.5,18.4,N/A,,Clear,70,2013-02-02 03:53:00
6:53 PM,73.0,57.0,57,30.10,10.0,ENE,9.2,23.0,N/A,,Clear,70,2013-02-02 04:53:00
7:53 PM,72.0,59.0,64,30.12,10.0,ENE,9.2,17.3,N/A,,Clear,60,2013-02-02 05:53:00
8:53 PM,72.0,59.0,64,30.15,10.0,Variable,6.9,17.3,N/A,,Clear,0,2013-02-02 06:53:00
9:53 PM,72.0,59.0,64,30.14,10.0,ENE,8.1,-,N/A,,Clear,70,2013-02-02 07:53:00
10:07 PM,71.6,59.0,64,30.13,10.0,East,5.8,-,N/A,,Partly Cloudy,80,2013-02-02 08:07:00
10:53 PM,72.0,60.1,66,30.14,10.0,East,8.1,-,N/A,,Clear,80,2013-02-02 08:53:00
11:53 PM,72.0,60.1,66,30.13,10.0,ENE,6.9,-,N/A,,Clear,70,2013-02-02 09:53:00